Spokane Felts, WA

3:38 PM PDT on September 25, 2017 (GMT -0700)
Felts

Weather History for KSFF - March, 2014

Change the Weather History Date:

Thursday, March 27, 2014

  Actual Average Record
Temperature  
Mean Temperature 46 °F 44 °F  
Max Temperature 53 °F 53 °F 74 °F (2015)
Min Temperature 39 °F 34 °F 28 °F (2001)
Degree Days  
Heating Degree Days 19 21  
Month to date heating degree days 656 667  
Since 1 July heating degree days 5335 5238  
Cooling Degree Days 0 0  
Month to date cooling degree days 0 0  
Year to date cooling degree days 0 0  
Moisture  
Dew Point 36 °F    
Average Humidity 66    
Maximum Humidity 82    
Minimum Humidity 50    
Precipitation  
Precipitation 0.03 in 0.06 in 0.86 in (2005)
Month to date precipitation 2.57 1.33  
Year to date precipitation 5.21 4.66  
Sea Level Pressure  
Sea Level Pressure 29.65 in    
Wind  
Wind Speed 8 mph (SSW)    
Max Wind Speed 24 mph    
Max Gust Speed 30 mph    
Visibility 10 miles    
Events Rain    
T = Trace of Precipitation, MM = Missing Value Source: NWS Daily Summary

Daily Weather History Graph

Daily Weather History Graph

Search for Another Location

Airport or City:

Trip Planner

Search our weather history database for the weather conditions in past years. The results will help you decide how hot, cold, wet, or windy it might be!

Date:

Astronomy

Mar. 27, 2014 Rise Set
Actual Time 6:37 AM PDT 7:12 PM PDT
Civil Twilight 6:06 AM PDT 7:43 PM PDT
Nautical Twilight 5:30 AM PDT 8:20 PM PDT
Astronomical Twilight 4:51 AM PDT 8:58 PM PDT
Moon 4:45 AM PDT (3/27) 3:53 PM PDT (3/27)
Length of Visible Light 13h 36m
Length of Day
12h 34m
Waning Crescent, 12% of the Moon is Illuminated
Mar 27
Waning Crescent
Mar 30
New
Apr 7
First Quarter
Apr 15
Full
Apr 22
Last Quarter

Hourly Weather History & Observations

Time (PDT) Temp. Windchill Dew Point Humidity Pressure Visibility Wind Dir Wind Speed Gust Speed Precip Events Conditions
12:44 AM 43.0 °F 39.5 °F 37.9 °F 82% 29.55 in 10.0 mi SW 5.8 mph - N/A   Overcast
12:53 AM 43.0 °F 38.2 °F 37.9 °F 82% 29.55 in 10.0 mi SSW 8.1 mph - N/A   Overcast
1:53 AM 43.0 °F 37.7 °F 37.9 °F 82% 29.56 in 9.0 mi SSW 9.2 mph - 0.00 in Rain Light Rain
2:13 AM 42.1 °F 37.7 °F 37.9 °F 85% 29.56 in 9.0 mi South 6.9 mph - 0.00 in Rain Light Rain
2:23 AM 42.1 °F 37.7 °F 39.0 °F 89% 29.56 in 8.0 mi SSW 6.9 mph - 0.00 in Rain Light Rain
2:50 AM 42.8 °F 40.1 °F 37.4 °F 81% 29.56 in 9.0 mi SSE 4.6 mph - 0.01 in Rain Light Rain
2:53 AM 42.1 °F 40.2 °F 37.9 °F 85% 29.56 in 9.0 mi South 3.5 mph - 0.01 in Rain Light Rain
3:15 AM 42.1 °F 40.2 °F 37.9 °F 85% 29.56 in 10.0 mi South 3.5 mph - 0.00 in   Overcast
3:30 AM 42.1 °F - 37.9 °F 85% 29.56 in 10.0 mi Calm Calm - 0.00 in   Overcast
3:53 AM 41.0 °F - 37.9 °F 89% 29.56 in 10.0 mi Calm Calm - 0.00 in   Overcast
4:53 AM 42.1 °F 37.1 °F 37.0 °F 82% 29.57 in 10.0 mi SSW 8.1 mph - N/A   Overcast
5:53 AM 41.0 °F 35.2 °F 36.0 °F 82% 29.59 in 10.0 mi SSW 9.2 mph - N/A   Overcast
6:53 AM 41.0 °F 36.4 °F 36.0 °F 82% 29.60 in 10.0 mi SW 6.9 mph - N/A   Overcast
7:29 AM 41.0 °F 35.2 °F 35.1 °F 79% 29.60 in 10.0 mi SSW 9.2 mph - N/A   Overcast
7:53 AM 41.0 °F 34.3 °F 36.0 °F 82% 29.62 in 10.0 mi SSW 11.5 mph - N/A   Overcast
8:53 AM 42.1 °F 35.2 °F 35.1 °F 76% 29.64 in 10.0 mi SW 12.7 mph - N/A   Overcast
9:53 AM 44.1 °F 38.1 °F 35.1 °F 71% 29.65 in 10.0 mi SW 11.5 mph - N/A   Mostly Cloudy
10:25 AM 45.0 °F 39.7 °F 35.1 °F 68% 29.64 in 10.0 mi SW 10.4 mph - N/A   Mostly Cloudy
10:53 AM 46.0 °F 40.6 °F 34.0 °F 63% 29.66 in 10.0 mi SW 11.5 mph - N/A   Overcast
11:34 AM 46.9 °F - 35.1 °F 63% 29.66 in 10.0 mi SW 17.3 mph - N/A   Overcast
11:53 AM 48.9 °F - 35.1 °F 59% 29.67 in 10.0 mi SW 17.3 mph 21.9 mph N/A   Overcast
12:53 PM 48.9 °F - 34.0 °F 56% 29.67 in 10.0 mi SW 10.4 mph - N/A   Mostly Cloudy
1:53 PM 50.0 °F - 33.1 °F 52% 29.66 in 10.0 mi SSW 15.0 mph - N/A   Overcast
2:53 PM 51.1 °F - 34.0 °F 52% 29.65 in 10.0 mi SSW 13.8 mph 20.7 mph 0.00 in   Mostly Cloudy
3:53 PM 46.0 °F 42.5 °F 37.0 °F 71% 29.70 in 10.0 mi West 6.9 mph - 0.02 in   Overcast
4:53 PM 48.9 °F - 37.0 °F 64% 29.71 in 10.0 mi WSW 11.5 mph - N/A   Mostly Cloudy
5:53 PM 48.0 °F - 36.0 °F 63% 29.73 in 10.0 mi Variable 3.5 mph - 0.00 in Rain Light Rain
6:53 PM 48.9 °F - 34.0 °F 56% 29.75 in 10.0 mi West 4.6 mph - 0.00 in   Overcast
7:53 PM 44.1 °F - 36.0 °F 73% 29.79 in 10.0 mi Calm Calm - N/A   Mostly Cloudy
8:53 PM 41.0 °F 39.0 °F 36.0 °F 82% 29.81 in 10.0 mi NE 3.5 mph - N/A   Mostly Cloudy
9:53 PM 41.0 °F 39.0 °F 36.0 °F 82% 29.83 in 10.0 mi NNE 3.5 mph - N/A   Overcast
10:53 PM 41.0 °F 39.0 °F 36.0 °F 82% 29.84 in 10.0 mi NNE 3.5 mph - N/A   Overcast
11:53 PM 42.1 °F - 36.0 °F 79% 29.85 in 10.0 mi Calm Calm - N/A   Overcast